EST,Max TemperatureF,Mean TemperatureF,Min TemperatureF,Max Dew PointF,MeanDew PointF,Min DewpointF,Max Humidity, Mean Humidity, Min Humidity, Max Sea Level PressureIn, Mean Sea Level PressureIn, Min Sea Level PressureIn, Max VisibilityMiles, Mean VisibilityMiles, Min VisibilityMiles, Max Wind SpeedMPH, Mean Wind SpeedMPH, Max Gust SpeedMPH,PrecipitationIn, CloudCover, Events, WindDirDegrees
2012-11-1,60,48,37,39,35,32,100,67,36,29.87,29.80,29.75,10,10,10,9,1,16,0.00,2,,292
2012-11-2,68,50,32,37,34,30,100,67,28,29.98,29.88,29.79,10,10,10,12,2,20,0.00,1,,266
2012-11-3,60,46,32,36,33,30,100,68,31,30.12,30.05,29.98,10,10,7,8,1,,0.00,0,,314
2012-11-4,59,48,37,43,38,34,87,65,51,30.09,30.02,29.97,10,10,10,9,4,,0.01,4,Rain,38
2012-11-5,57,48,37,43,35,32,100,68,38,30.12,30.06,30.00,10,10,10,8,2,,0.00,1,,26
2012-11-6,48,40,33,34,32,30,100,71,54,30.12,30.04,29.91,10,10,10,13,4,17,0.00,4,,7
2012-11-7,53,45,37,34,32,28,81,61,38,29.95,29.89,29.84,10,10,4,8,3,,0.00,6,,346
2012-11-8,60,46,33,34,26,14,100,56,16,30.11,30.03,29.95,10,10,7,8,1,16,0.00,1,,317
2012-11-9,64,47,30,36,30,23,87,57,26,30.27,30.22,30.12,10,10,10,8,0,,0.00,0,,343
2012-11-10,73,52,32,39,34,28,100,58,20,30.41,30.33,30.27,10,10,10,8,1,,0.00,0,,172
2012-11-11,73,54,35,54,45,34,100,70,40,30.50,30.44,30.40,10,10,7,10,1,,0.00,0,,156
2012-11-12,75,60,46,61,55,46,100,79,50,30.43,30.32,30.20,10,9,4,13,4,21,0.00,0,,144
2012-11-13,62,53,44,61,49,37,100,90,72,30.40,30.29,30.17,10,9,2,13,4,21,0.14,8,Rain,8
2012-11-14,53,44,35,37,32,30,81,61,41,30.47,30.41,30.36,10,10,10,16,7,21,0.00,3,,17
2012-11-15,44,42,41,45,39,32,100,86,66,30.37,30.29,30.21,10,7,1,12,6,20,0.80,8,Rain,356
2012-11-16,57,49,41,45,39,34,100,75,44,30.38,30.30,30.26,10,10,5,10,3,,0.00,2,,1
2012-11-17,59,46,33,37,35,32,100,65,42,30.46,30.42,30.38,10,10,10,13,5,20,0.00,0,,14
2012-11-18,57,50,44,46,44,37,93,75,63,30.44,30.37,30.31,10,10,7,14,9,22,0.00,7,Rain,6
2012-11-19,59,54,50,46,44,43,82,71,59,30.31,30.24,30.16,10,10,10,13,9,21,0.00,7,,359
2012-11-20,60,51,41,45,43,39,100,73,55,30.16,30.11,30.06,10,10,10,9,4,,0.00,3,,357
2012-11-21,60,48,35,43,37,32,100,73,36,30.18,30.13,30.09,10,9,4,10,3,,0.00,0,,353
2012-11-22,62,48,33,32,29,23,87,58,22,30.24,30.18,30.14,10,10,10,12,4,18,0.00,0,,348
2012-11-23,68,49,30,39,33,28,100,64,27,30.17,30.03,29.89,10,10,10,12,2,17,0.00,0,,217
2012-11-24,53,42,32,37,25,18,70,47,30,30.14,30.01,29.88,10,10,10,13,5,22,0.00,0,,324
2012-11-25,53,38,24,27,22,18,93,56,24,30.20,30.13,30.05,10,10,10,10,2,,0.00,0,,205
2012-11-26,65,48,30,32,28,21,100,59,18,30.23,30.17,30.11,10,10,10,8,1,,0.00,0,,179
2012-11-27,58,48,39,49,39,31,99,75,47,30.23,30.16,30.11,10,10,2,9,2,,0.03,6,Rain,116
2012-11-28,53,42,29,43,33,29,98,73,41,30.40,30.32,30.23,10,10,7,8,3,,0.00,1,,352
2012-11-29,56,40,25,32,28,23,99,70,30,30.49,30.43,30.39,10,10,7,6,1,,0.00,0,,225
2012-11-30,63,46,28,37,32,28,98,70,32,30.42,30.36,30.31,10,10,7,7,1,,0.00,0,,185